Regional Weather Roundup
Issued by NWS

Home | Current Version | Previous Version | Text Only | Print | Product List | Glossary On
Versions: 1 2 3 4 5 6 7 8 9 10 11 12 13 14 15 16 17 18 19 20 21 22 23 24 25 26 27 28 29 30 31 32 33 34 35 36 37 38 39 40 41 42 43 44 45 46 47 48 49 50
849
ASUS44 KJAN 231010
RWRMS

MISSISSIPPI HOURLY WEATHER ROUNDUP
NATIONAL WEATHER SERVICE JACKSON MS
500 AM CDT THU OCT 23 2014

NOTE: "FAIR: INDICATES FEW OR NO CLOUDS BELOW 12,000 FEET WITH NO
SIGNIFICANT WEATHER AND/OR OBSTRUCTIONS TO VISIBILITY.

MSZ001>002-007>008-010>013-018>021-025>028-034>036-231100-
NORTHWEST MISSISSIPPI

CITY           SKY/WX    TMP DP  RH WIND       PRES   REMARKS
CLARKSDALE     FAIR      41  41 100 N5        30.18R
CLEVELAND      FAIR      47  46  97 NE5       30.15R
GREENWOOD      CLEAR     42  41  96 CALM      30.15R
GREENVILLE     PTCLDY    47  43  86 CALM      30.15R
GRENADA          N/A    N/A N/A N/A MISG        N/A
OLIVE BRANCH   CLEAR     43  43 100 E3        30.18R
OXFORD         FAIR      39  37  93 CALM      30.18R
TUNICA         MOSUNNY   41  39  93 CALM      30.18S
$$

MSZ003>006-009-014>017-022>024-029>033-037>039-231100-
NORTHEAST MISSISSIPPI

CITY           SKY/WX    TMP DP  RH WIND       PRES   REMARKS
COLUMBUS AFB   CLEAR     43  42  97 N2        30.15S
CORINTH        FAIR      37  37 100 CALM      30.17S FOG
GOLDN TRIANGLE CLEAR     43  37  81 NE6       30.13S
STARKVILLE     FAIR      45  43  93 NE3       30.14R
TUPELO         CLEAR     42  39  89 NE6       30.16S
$$

MSZ040-058-231100-
CENTRAL MISSISSIPPI

CITY           SKY/WX    TMP DP  RH WIND       PRES   REMARKS
JACKSON INTL   CLEAR     45  42  89 NE3       30.12R
JACKSON HAWKNS CLEAR     47  43  86 CALM      30.12R
MERIDIAN KEY   CLEAR     42  40  92 CALM      30.12S
MERIDIAN NAS   CLEAR     44  40  85 NE3       30.13S
RAYMOND        FAIR      41  37  87 NW3       30.13R HAZE
VICKSBURG      CLEAR     44  43  96 N3        30.14R
$$

MSZ059>079-231100-
SOUTH MISSISSIPPI

CITY           SKY/WX    TMP DP  RH WIND       PRES   REMARKS
BROOKHAVEN     FAIR      45  45 100 CALM      30.11S
COLUMBIA         N/A    N/A N/A N/A MISG        N/A
HATTIESBURG    CLEAR     45  43  93 CALM      30.10F
MCCOMB         CLEAR     52  45  77 N5        30.09S
NATCHEZ        CLEAR     45  41  87 N5        30.12R
PINE BELT      CLEAR     46  41  81 NE7       30.10F
$$

MSZ080>082-231100-
COASTAL MISSISSIPPI

CITY           SKY/WX    TMP DP  RH WIND       PRES   REMARKS
BILOXI         CLEAR     52  46  79 NE7       30.07R
PASCAGOULA     CLEAR     45  43  93 N3        30.07S
GULFPORT       CLEAR     51  44  77 N3        30.07R
$$



USA.gov is the U.S. government's official web portal to all federal, state and local government web resources and services.